Temp
79 77 76 74 75 77 77 78 80 80 79 80 83 83 76 74 74 79 82 81 80 79 80 79 80 80 79 80 79 79 80 79 80 80 79 80 81 80 80 81 80 80 81 80 81 81 82 83 82 83 82 82 81 80 80 79 79 82 80 79 78 78 79
78 79 79 78 77 78 77 76 78 79 78 78 78 73 74 75 75 75 79 81 81 81 81 80 80 80 80 80 80 80 79 80 80 81 81 80 81 80 81 81 80 79 80 81 81 81 82 83 82 83 82 82 82 81 81 80 80 80 81 79 79 78 79
77 78 79 79 78 77 75 73 76 78 79 79 78 76 75 75 76 76 77 79 80 80 80 81 81 81 81 80 80 80 80 80 80 80 80 81 82 83 83 82 81 81 82 83 82 83 84 83 82 82 83 83 82 82 81 81 81 81 80 80 79 79 78
73 73 74 75 75 76 77 76 77 76 79 78 78 76 75 75 76 76 77 78 79 80 80 80 82 82 82 81 81 80 81 80 81 82 82 82 82 83 82 82 81 82 82 82 84 86 87 83 83 82 84 82 81 82 82 82 82 81 81 80 79 79 79
73 73 73 72 73 73 75 76 76 76 75 72 74 74 74 75 76 76 77 77 78 79 80 79 83 82 83 83 84 84 82 82 82 82 83 83 82 83 82 83 82 83 83 85 82 83 82 83 84 82 82 82 81 82 82 82 82 81 80 80 79 79 78
72 71 70 71 72 73 75 78 73 71 72 73 73 75 75 75 77 77 77 77 76 77 78 78 79 79 79 82 84 85 83 82 82 81 82 82 81 84 83 82 83 83 83 84 84 84 82 84 84 83 83 83 83 83 83 82 83 83 81 80 80 81 80
70 70 70 70 72 74 74 74 70 72 73 73 74 76 76 75 76 78 78 77 77 76 77 79 80 79 79 78 78 79 81 83 83 83 83 84 83 83 83 83 83 84 84 83 84 85 83 83 83 83 83 84 83 83 82 81 81 82 81 80 79 79 79
69 68 69 74 77 77 75 73 71 71 72 74 74 74 74 74 75 76 77 78 78 78 78 80 79 79 78 79 79 78 79 78 79 82 81 84 84 82 83 83 82 83 84 83 84 85 85 83 84 84 84 84 83 82 82 82 81 83 81 80 79 80 84
71 71 71 75 76 77 77 76 73 72 72 72 73 73 73 75 76 76 76 77 78 79 79 80 79 77 77 78 79 79 80 80 78 79 80 82 83 85 86 85 84 82 84 84 85 84 85 85 85 82 83 84 82 83 82 81 82 82 81 80 80 80 82
71 71 71 72 73 74 75 76 75 73 72 71 71 72 74 75 76 76 76 76 76 77 77 75 75 75 74 75 78 80 80 79 79 80 81 82 83 85 87 87 86 84 84 85 85 85 83 84 86 83 81 83 82 82 82 81 82 82 82 81 81 81 80
71 69 69 69 69 70 72 73 73 72 72 70 71 73 73 74 75 75 75 75 76 76 77 75 74 76 76 76 75 75 75 76 76 77 76 76 74 72 73 81 87 87 86 86 86 86 85 82 84 83 82 83 82 81 81 81 82 82 83 82 82 81 82
68 68 66 67 68 68 69 70 73 72 72 72 73 74 74 74 74 74 74 75 76 76 75 75 76 75 74 74 73 73 73 72 73 73 74 75 75 75 77 77 76 82 88 88 87 84 86 85 84 84 82 83 83 82 81 81 81 81 82 84 83 81 82
69 68 67 68 67 68 68 69 71 71 71 72 74 76 76 75 74 73 73 73 74 75 77 76 75 76 74 74 74 73 73 75 74 75 74 75 75 75 75 76 78 78 82 88 88 88 85 87 85 83 83 83 84 84 82 81 82 80 81 83 83 82 81
69 69 68 68 69 69 69 69 70 68 68 70 70 70 74 76 75 74 73 73 75 76 76 77 77 77 76 76 74 74 74 74 75 74 74 74 74 74 74 75 78 79 80 82 87 88 88 86 86 84 84 84 84 84 84 82 83 81 81 82 83 83 81
68 68 68 68 67 67 69 69 67 68 67 67 68 68 68 71 74 75 75 75 75 77 77 75 76 77 76 74 73 73 73 73 74 74 75 74 74 74 74 75 77 79 80 80 82 86 88 88 87 86 85 84 84 84 85 85 84 84 83 82 82 83 82
69 68 68 68 68 69 69 69 69 68 68 66 67 67 68 69 71 73 76 76 77 76 74 75 76 75 74 73 73 73 73 72 74 75 74 73 73 73 74 76 77 78 78 78 79 78 79 81 83 87 86 85 84 84 86 85 87 83 79 80 83 82 86
70 70 69 69 69 71 71 71 71 70 69 68 68 70 69 70 71 72 74 75 75 72 74 77 74 75 74 73 73 73 73 73 74 74 73 74 75 75 76 76 77 76 76 76 77 77 77 79 79 82 85 86 86 85 86 88 89 79 72 73 76 84 82
68 69 70 71 70 71 71 72 72 71 71 73 73 72 71 70 69 70 71 73 73 74 77 76 76 74 74 74 73 73 73 72 73 73 73 72 73 73 73 75 75 74 74 75 77 76 78 78 78 77 79 83 84 85 87 87 82 74 70 71 71 77 83
67 68 69 69 69 70 71 72 73 73 74 73 72 73 74 73 71 69 70 70 73 74 74 74 74 73 73 73 73 72 72 73 73 73 73 72 73 73 74 74 74 74 75 76 77 77 76 76 77 77 77 79 78 79 81 84 79 71 69 69 70 70 78
69 69 69 69 69 68 69 70 70 72 74 74 75 76 76 74 76 75 75 73 71 72 72 71 71 71 71 71 71 72 72 72 72 73 73 73 73 72 72 73 73 74 75 76 76 75 75 76 76 76 75 76 77 77 79 80 79 71 67 66 67 68 72
67 68 68 68 68 69 67 66 68 69 70 72 73 73 74 75 76 75 73 72 73 73 71 71 71 71 72 71 71 72 72 72 71 72 73 73 73 73 72 72 72 73 74 75 76 75 75 75 74 75 76 77 78 79 80 84 75 70 68 63 63 65 69
66 68 67 68 66 65 65 69 68 69 67 69 68 69 71 71 74 74 73 74 72 72 72 71 70 70 70 70 71 70 72 72 71 70 71 72 72 72 72 73 73 73 74 75 75 76 75 75 75 75 75 76 77 78 78 82 71 67 68 64 61 64 70
67 67 69 69 70 68 67 68 70 71 71 69 68 68 69 69 70 73 73 73 72 69 69 70 68 68 68 69 69 70 72 71 70 70 71 72 72 71 71 72 73 73 74 74 74 75 75 75 76 76 76 77 76 77 77 79 74 68 62 62 62 64 71
70 68 69 69 69 69 68 68 70 73 72 71 72 71 69 69 69 70 69 71 72 71 69 70 70 70 69 68 69 70 69 70 71 71 71 70 70 70 70 71 72 72 74 73 73 73 75 76 76 78 78 78 77 79 78 79 76 59 61 61 60 66 72
71 70 69 68 68 68 69 68 69 72 70 69 69 69 70 71 69 69 68 68 69 70 70 70 70 70 70 71 71 71 71 72 71 70 70 69 69 70 70 70 70 71 72 73 73 73 74 75 76 77 78 80 80 80 80 81 74 60 63 65 60 63 70
67 68 68 69 69 69 68 68 68 69 69 69 67 70 70 69 67 67 66 67 69 69 69 69 68 68 69 69 70 70 70 71 70 70 70 69 70 70 70 70 70 70 71 72 73 73 74 75 75 76 78 80 80 82 79 75 75 72 60 61 59 60 71
69 69 68 69 67 70 67 68 68 67 68 65 66 69 68 67 66 64 64 65 65 66 67 68 68 68 67 67 68 70 69 70 69 69 70 71 70 71 71 69 69 69 70 71 73 74 73 74 75 77 77 78 79 80 75 75 76 75 64 59 56 55 62
68 69 70 69 69 68 66 67 66 66 68 67 69 69 68 65 63 63 62 63 64 66 68 67 67 66 66 65 66 68 69 69 69 70 71 71 71 69 68 69 71 71 71 73 72 72 72 72 73 74 75 76 77 79 77 75 76 75 68 60 56 52 55
64 64 64 64 65 67 67 63 64 64 65 68 68 68 68 67 63 63 63 62 63 66 67 67 67 66 66 65 66 66 66 66 67 68 69 69 70 69 68 69 71 71 71 71 71 71 71 71 72 73 73 74 75 77 78 75 76 70 73 65 57 53 51
63 64 65 67 66 65 65 62 61 62 64 65 65 65 65 64 62 63 62 61 63 65 66 65 65 65 65 66 65 66 66 67 68 69 69 70 69 69 68 68 69 69 70 70 70 70 70 70 71 72 72 73 74 76 75 75 74 73 69 70 61 54 51
62 62 63 62 63 63 63 61 60 61 62 63 63 63 62 63 61 61 60 61 63 63 63 64 64 64 64 64 65 65 66 66 66 67 68 69 69 68 68 68 68 67 68 69 69 69 69 70 71 72 73 73 74 75 74 75 74 74 73 68 63 58 53
61 61 62 62 61 61 61 61 61 61 60 60 62 62 62 61 61 59 60 62 63 62 62 63 63 62 63 63 64 64 65 66 67 68 68 69 69 69 68 68 68 68 68 68 68 69 70 70 71 72 72 73 73 73 73 74 74 74 75 74 73 68 61
59 59 58 58 59 60 59 59 59 58 59 58 60 60 62 61 62 61 61 61 62 62 62 62 62 63 62 62 62 64 64 64 64 65 66 67 68 69 70 69 68 69 68 69 69 70 70 71 71 71 72 71 71 72 72 73 73 73 73 73 73 73 72
58 58 58 59 59 60 59 57 56 57 57 57 58 59 60 60 60 61 61 61 62 63 62 62 62 61 61 63 64 64 65 65 71 70 67 67 69 68 69 70 71 70 69 69 69 69 69 70 69 68 68 68 69 69 69 71 72 72 72 72 71 71 71
57 57 58 58 59 59 56 57 56 57 58 58 58 58 58 59 59 60 60 61 62 61 61 61 62 61 61 63 63 64 66 66 66 66 66 66 67 68 67 66 68 68 69 71 71 69 70 67 67 69 69 69 67 66 67 69 69 72 64 66 61 64 68
57 58 59 59 59 57 58 58 58 58 58 58 58 58 58 58 59 60 62 62 62 62 60 61 60 59 59 60 61 63 63 63 64 64 65 65 65 66 67 70 63 62 66 68 69 65 59 56 63 67 68 68 69 68 69 69 72 65 56 51 49 50 51
58 58 57 57 56 57 57 58 59 58 57 56 58 58 59 58 60 60 62 61 61 61 59 58 59 59 58 60 60 61 63 62 61 62 61 62 63 63 64 65 66 57 55 57 61 58 55 54 54 55 57 62 64 66 62 61 57 53 52 51 51 50 49
59 58 59 58 57 58 57 57 56 56 56 56 57 57 57 58 59 58 61 61 61 60 58 58 58 57 58 58 59 61 61 59 60 61 61 61 62 62 62 62 62 64 59 56 56 56 54 53 52 51 51 52 55 60 64 60 55 52 51 51 50 49 48
MSLP
1013.83 1014.15 1014.31 1014.75 1014.99 1014.51 1014.15 1013.95 1013.79 1013.95 1014.23 1014.35 1014.47 1015.03 1016.47 1016.79 1017.15 1016.07 1015.99 1016.27 1016.63 1017.07 1017.15 1017.35 1017.63 1017.79 1018.07 1018.19 1018.23 1018.27 1018.31 1018.47 1018.51 1018.67 1018.87 1018.95 1018.99 1019.27 1019.47 1019.51 1019.75 1019.83 1019.75 1019.99 1019.95 1019.99 1019.87 1019.71 1019.91 1020.07 1020.15 1020.27 1020.43 1020.51 1020.63 1020.67 1020.75 1020.75 1020.79 1020.83 1020.99 1021.15 1021.35
1013.91 1013.95 1014.19 1014.39 1014.71 1014.31 1014.23 1014.31 1014.19 1014.11 1013.99 1014.35 1014.91 1015.83 1016.15 1016.27 1016.11 1015.91 1015.87 1016.03 1016.31 1016.59 1016.87 1017.11 1017.39 1017.59 1017.75 1017.95 1017.99 1018.07 1018.27 1018.35 1018.43 1018.47 1018.63 1018.79 1018.79 1018.95 1019.03 1019.31 1019.47 1019.67 1019.63 1019.59 1019.63 1019.63 1019.59 1019.63 1019.71 1019.95 1020.11 1020.19 1020.35 1020.35 1020.47 1020.51 1020.59 1020.71 1020.83 1020.91 1021.07 1021.23 1021.31
1014.03 1013.95 1013.87 1013.95 1014.07 1014.07 1014.35 1015.19 1014.75 1014.43 1014.11 1014.35 1014.91 1015.47 1015.83 1015.99 1015.87 1015.83 1016.03 1016.15 1016.39 1016.55 1016.63 1016.83 1017.07 1017.27 1017.47 1017.63 1017.87 1017.95 1018.07 1018.19 1018.39 1018.51 1018.75 1018.83 1018.87 1018.87 1018.83 1018.95 1019.15 1019.35 1019.39 1019.35 1019.39 1019.51 1019.39 1019.59 1019.59 1019.71 1019.91 1020.11 1020.23 1020.31 1020.31 1020.43 1020.43 1020.55 1020.63 1020.75 1020.95 1021.19 1021.31
1014.51 1014.63 1014.35 1014.19 1014.19 1014.11 1014.11 1014.55 1014.63 1014.83 1014.43 1014.59 1014.95 1015.47 1015.83 1015.87 1015.63 1015.55 1015.79 1015.79 1015.95 1016.07 1016.39 1016.51 1016.75 1016.99 1017.19 1017.47 1017.67 1017.79 1017.91 1017.95 1018.03 1018.23 1018.35 1018.43 1018.63 1018.59 1018.79 1018.87 1018.99 1019.03 1019.23 1019.31 1019.23 1019.19 1019.23 1019.39 1019.59 1019.67 1019.75 1019.99 1020.15 1020.19 1020.23 1020.31 1020.31 1020.39 1020.51 1020.67 1020.95 1020.99 1021.11
1014.95 1014.91 1014.87 1014.99 1015.03 1014.87 1014.59 1014.59 1014.63 1014.87 1015.51 1016.03 1016.11 1016.15 1016.35 1016.11 1015.67 1015.55 1015.79 1016.03 1015.91 1015.99 1015.95 1016.19 1016.35 1016.59 1016.79 1017.03 1017.31 1017.47 1017.59 1017.67 1017.83 1017.87 1018.03 1018.11 1018.23 1018.39 1018.67 1018.83 1018.91 1018.99 1018.95 1018.91 1018.95 1019.07 1019.19 1019.39 1019.51 1019.67 1019.79 1019.87 1020.11 1020.19 1020.27 1020.23 1020.31 1020.31 1020.51 1020.63 1020.91 1020.91 1021.07
1015.59 1015.71 1015.71 1015.55 1015.39 1015.27 1015.07 1014.79 1015.79 1016.27 1016.51 1016.87 1016.31 1016.15 1016.27 1016.31 1015.87 1015.79 1015.87 1015.99 1016.15 1016.19 1016.15 1016.23 1016.39 1016.63 1016.87 1016.87 1017.03 1017.23 1017.31 1017.43 1017.47 1017.59 1017.79 1017.95 1018.23 1018.43 1018.59 1018.63 1018.71 1018.83 1018.95 1018.91 1018.79 1018.87 1019.07 1019.19 1019.39 1019.51 1019.75 1019.79 1019.95 1020.15 1020.19 1020.35 1020.27 1020.27 1020.43 1020.59 1020.79 1020.87 1021.03
1015.95 1015.79 1015.59 1015.39 1015.23 1015.11 1015.15 1015.31 1015.83 1015.83 1015.79 1015.55 1015.71 1015.91 1015.95 1015.87 1015.83 1015.83 1015.91 1016.11 1016.19 1016.47 1016.51 1016.59 1016.63 1016.75 1016.91 1016.95 1017.03 1017.11 1017.31 1017.35 1017.47 1017.63 1017.63 1017.83 1017.99 1018.31 1018.35 1018.43 1018.51 1018.59 1018.63 1018.71 1018.83 1018.75 1019.07 1019.19 1019.23 1019.35 1019.51 1019.67 1019.83 1019.99 1020.15 1020.23 1020.35 1020.31 1020.39 1020.59 1020.75 1020.75 1020.79
1016.35 1016.39 1015.91 1015.27 1015.15 1015.15 1015.55 1015.79 1016.07 1015.79 1015.67 1015.91 1016.11 1016.43 1016.39 1016.15 1016.03 1016.07 1016.23 1016.27 1016.35 1016.39 1016.51 1016.63 1016.75 1016.83 1016.99 1017.03 1017.03 1017.15 1017.19 1017.23 1017.15 1017.31 1017.51 1017.75 1017.91 1018.19 1018.27 1018.35 1018.47 1018.47 1018.51 1018.87 1018.71 1018.67 1018.87 1018.99 1019.11 1019.19 1019.31 1019.55 1019.63 1019.75 1019.91 1020.03 1020.11 1020.19 1020.31 1020.59 1020.71 1020.75 1020.63
1016.23 1016.11 1016.07 1015.71 1015.55 1015.47 1015.59 1015.79 1016.07 1015.83 1015.91 1016.23 1016.51 1016.67 1016.51 1016.43 1016.31 1016.23 1016.23 1016.27 1016.35 1016.39 1016.39 1016.35 1016.67 1016.87 1017.03 1017.19 1017.11 1016.99 1016.91 1017.03 1017.19 1017.23 1017.43 1017.75 1017.87 1018.03 1018.19 1018.31 1018.39 1018.39 1018.63 1018.75 1018.75 1018.55 1018.67 1018.75 1018.87 1019.07 1019.19 1019.35 1019.51 1019.63 1019.75 1019.83 1019.95 1019.95 1020.15 1020.39 1020.55 1020.67 1020.67
1016.39 1016.63 1016.75 1016.51 1016.23 1016.03 1016.03 1016.07 1016.03 1016.07 1016.11 1016.39 1016.67 1016.63 1016.43 1016.27 1016.23 1016.27 1016.31 1016.35 1016.35 1016.39 1016.35 1016.95 1016.67 1016.43 1016.59 1016.99 1017.31 1017.31 1017.15 1017.07 1017.07 1017.23 1017.47 1017.83 1018.03 1018.31 1018.19 1018.15 1018.35 1018.35 1018.55 1018.59 1018.55 1018.71 1018.59 1018.59 1018.67 1018.83 1019.11 1019.31 1019.43 1019.51 1019.59 1019.67 1019.75 1019.79 1019.87 1020.11 1020.31 1020.47 1020.55
1016.67 1016.95 1017.23 1017.39 1017.39 1017.15 1016.79 1016.71 1016.71 1016.51 1016.31 1016.67 1016.99 1016.87 1016.59 1016.55 1016.55 1016.55 1016.63 1016.59 1016.67 1016.63 1016.43 1016.83 1017.19 1017.03 1017.11 1017.39 1017.99 1018.39 1018.51 1018.39 1018.11 1018.19 1018.71 1019.19 1019.71 1020.15 1020.03 1019.35 1018.79 1018.31 1018.39 1018.47 1018.55 1018.47 1018.51 1018.63 1018.55 1018.79 1018.95 1019.19 1019.27 1019.35 1019.43 1019.43 1019.51 1019.67 1019.71 1019.79 1019.87 1020.11 1020.27
1017.27 1017.19 1017.31 1017.55 1017.71 1017.59 1017.55 1017.27 1016.99 1016.79 1016.47 1016.47 1016.79 1016.87 1016.91 1016.91 1016.99 1016.95 1016.91 1016.87 1016.63 1016.71 1016.87 1017.15 1017.43 1017.79 1018.07 1018.27 1018.55 1018.79 1018.95 1019.03 1018.91 1018.95 1018.87 1018.99 1019.11 1018.99 1019.07 1019.23 1019.63 1019.51 1018.39 1018.07 1018.35 1018.31 1018.31 1018.43 1018.55 1018.63 1018.83 1018.83 1018.87 1018.95 1019.07 1019.11 1019.19 1019.39 1019.47 1019.51 1019.59 1019.83 1019.99
1017.79 1017.83 1017.79 1017.75 1017.79 1017.75 1017.59 1017.59 1017.59 1017.47 1017.23 1016.83 1016.47 1016.51 1016.67 1016.91 1017.07 1017.19 1017.19 1017.15 1016.99 1016.87 1016.79 1016.87 1017.15 1017.47 1018.11 1018.07 1017.83 1018.15 1018.35 1018.31 1018.07 1018.07 1018.47 1018.67 1018.63 1018.27 1018.19 1018.31 1018.63 1019.07 1019.15 1018.15 1017.83 1018.03 1018.27 1018.23 1018.31 1018.31 1018.47 1018.55 1018.55 1018.71 1018.79 1018.87 1018.91 1019.07 1019.19 1019.27 1019.31 1019.51 1019.75
1018.03 1018.11 1018.11 1018.07 1018.11 1018.15 1018.23 1018.15 1018.07 1018.27 1018.11 1017.75 1017.55 1017.23 1016.87 1016.91 1016.99 1017.11 1017.19 1017.27 1017.11 1016.95 1016.99 1017.11 1017.07 1017.35 1017.67 1017.63 1017.79 1017.83 1017.87 1017.91 1017.83 1017.87 1018.03 1018.27 1018.47 1018.35 1018.19 1017.99 1017.91 1018.31 1018.55 1018.39 1017.91 1017.67 1017.79 1018.03 1018.11 1018.11 1018.11 1018.27 1018.39 1018.35 1018.39 1018.59 1018.71 1018.79 1018.91 1018.99 1019.07 1019.23 1019.47
1018.23 1018.47 1018.55 1018.71 1018.87 1018.79 1018.67 1018.63 1018.59 1018.59 1018.67 1018.83 1018.67 1018.43 1018.15 1017.75 1017.39 1017.15 1017.11 1017.07 1017.11 1017.07 1017.27 1017.19 1017.07 1017.31 1017.63 1017.75 1017.87 1017.95 1017.91 1017.83 1017.79 1017.83 1017.95 1018.15 1018.15 1017.87 1017.51 1017.75 1018.03 1018.07 1018.39 1018.47 1018.11 1017.47 1017.35 1017.31 1017.59 1017.91 1017.99 1018.03 1018.11 1018.19 1018.23 1018.43 1018.51 1018.51 1018.63 1018.79 1018.87 1018.83 1019.15
1018.43 1018.79 1019.03 1019.23 1019.15 1019.15 1019.07 1018.95 1018.79 1018.83 1019.11 1019.39 1019.19 1018.99 1018.79 1018.47 1017.99 1017.59 1017.47 1017.47 1017.39 1017.51 1017.67 1017.35 1017.71 1017.75 1017.75 1017.99 1018.07 1017.99 1017.91 1017.91 1017.87 1017.83 1017.87 1018.07 1018.19 1018.15 1017.75 1017.87 1017.99 1018.07 1018.23 1018.27 1018.19 1017.71 1017.55 1017.55 1017.55 1017.55 1017.79 1017.99 1018.03 1017.99 1018.07 1018.19 1018.15 1018.15 1018.19 1018.27 1018.47 1018.63 1018.67
1018.39 1018.63 1018.83 1019.07 1019.15 1018.99 1018.87 1018.91 1018.87 1018.79 1018.87 1018.99 1018.83 1018.63 1018.79 1018.75 1018.39 1017.99 1017.87 1017.87 1017.95 1018.11 1017.83 1017.67 1017.95 1018.03 1018.03 1018.31 1018.23 1018.11 1017.99 1017.99 1017.99 1017.91 1018.11 1018.23 1018.39 1018.27 1018.11 1017.99 1017.95 1017.99 1018.07 1018.03 1017.95 1017.95 1017.75 1017.63 1017.75 1017.95 1017.71 1017.59 1017.71 1017.87 1017.83 1017.75 1017.67 1017.83 1018.03 1018.15 1018.15 1018.27 1018.47
1018.67 1018.67 1018.75 1018.87 1018.99 1019.03 1018.99 1018.83 1018.87 1018.83 1018.79 1018.55 1018.35 1018.27 1018.39 1018.71 1019.03 1018.87 1018.63 1018.27 1018.35 1018.27 1017.95 1017.91 1018.11 1018.31 1018.35 1018.43 1018.39 1018.27 1018.15 1018.15 1018.19 1018.35 1018.39 1018.31 1018.39 1018.35 1018.11 1017.79 1017.79 1017.91 1017.99 1018.07 1018.07 1017.95 1017.79 1017.75 1017.91 1017.95 1018.03 1017.83 1017.71 1017.71 1017.59 1017.43 1017.23 1017.39 1017.63 1017.87 1018.03 1018.11 1018.27
1018.95 1019.03 1019.19 1019.27 1019.31 1019.27 1019.19 1019.03 1018.83 1018.71 1018.67 1018.63 1018.51 1018.35 1018.23 1018.23 1018.51 1018.75 1018.83 1018.83 1018.47 1018.31 1018.31 1018.35 1018.43 1018.47 1018.51 1018.43 1018.39 1018.43 1018.39 1018.27 1018.23 1018.31 1018.27 1018.15 1017.99 1018.15 1018.39 1018.27 1018.11 1018.07 1018.15 1018.15 1017.95 1017.95 1017.95 1017.99 1017.91 1017.99 1017.91 1018.07 1018.23 1018.07 1017.75 1017.63 1017.35 1017.35 1017.39 1017.51 1017.63 1017.83 1017.99
1018.83 1019.07 1019.31 1019.47 1019.51 1019.55 1019.43 1019.23 1019.07 1018.83 1018.75 1018.75 1018.59 1018.39 1018.23 1018.07 1018.23 1018.47 1018.43 1018.35 1018.39 1018.63 1018.79 1018.79 1018.79 1018.71 1018.75 1018.67 1018.59 1018.51 1018.43 1018.35 1018.27 1018.23 1018.15 1017.95 1017.91 1018.07 1018.83 1019.19 1018.67 1018.23 1017.95 1017.83 1017.79 1017.87 1017.95 1017.91 1017.99 1017.91 1017.91 1017.87 1017.95 1018.11 1018.07 1017.87 1017.51 1017.43 1017.51 1017.51 1017.47 1017.51 1017.67
1019.07 1019.19 1019.47 1019.59 1019.63 1019.59 1019.51 1019.39 1019.19 1019.15 1019.19 1019.11 1018.95 1018.75 1018.51 1018.35 1018.19 1018.31 1018.55 1018.51 1018.63 1018.83 1019.07 1019.07 1019.11 1019.07 1018.99 1018.95 1018.83 1018.63 1018.43 1018.31 1018.19 1018.27 1018.27 1018.07 1018.11 1018.43 1019.15 1019.51 1018.83 1018.23 1018.03 1017.99 1017.95 1017.99 1018.11 1018.11 1018.11 1017.99 1017.91 1017.79 1017.67 1017.71 1017.71 1017.55 1017.47 1017.63 1017.67 1017.71 1017.83 1017.83 1017.83
1019.03 1019.19 1019.55 1019.67 1019.75 1019.63 1019.47 1019.31 1019.19 1019.27 1019.43 1019.15 1019.07 1019.07 1018.87 1018.83 1018.47 1018.47 1018.67 1018.51 1018.83 1018.99 1019.15 1019.27 1019.35 1019.39 1019.35 1019.35 1019.27 1019.11 1018.91 1018.71 1018.67 1018.55 1018.67 1018.59 1018.71 1018.99 1019.39 1019.11 1018.39 1018.19 1017.99 1017.99 1017.95 1017.87 1017.87 1017.91 1017.91 1018.03 1017.95 1017.75 1017.63 1017.67 1017.71 1017.27 1017.15 1017.35 1017.59 1017.75 1017.75 1017.79 1018.23
1018.83 1019.03 1019.31 1019.51 1019.47 1019.55 1019.31 1019.07 1018.95 1018.99 1019.19 1019.19 1019.11 1019.15 1019.19 1018.99 1018.91 1018.99 1019.03 1019.07 1019.11 1019.15 1019.27 1019.27 1019.39 1019.39 1019.31 1019.39 1019.39 1019.31 1019.15 1019.11 1019.27 1019.55 1019.63 1019.31 1019.35 1019.43 1019.31 1018.95 1018.43 1018.15 1017.91 1018.11 1018.07 1018.11 1018.03 1017.99 1017.95 1017.83 1017.79 1017.71 1017.55 1017.63 1017.63 1017.47 1017.15 1017.11 1017.23 1017.43 1017.67 1017.95 1018.11
1018.51 1018.83 1019.15 1019.31 1019.31 1019.31 1019.27 1019.11 1018.95 1018.99 1019.15 1019.27 1019.19 1019.03 1018.99 1018.99 1019.15 1019.31 1019.39 1019.31 1019.23 1019.27 1019.39 1019.39 1019.51 1019.39 1019.35 1019.27 1019.15 1019.15 1019.03 1018.99 1019.11 1019.27 1019.35 1019.27 1019.35 1019.31 1019.15 1018.87 1018.55 1018.47 1018.19 1018.35 1018.31 1018.23 1018.03 1017.91 1017.87 1017.75 1017.63 1017.59 1017.55 1017.39 1017.55 1017.39 1017.03 1017.19 1016.91 1016.79 1016.83 1017.11 1017.39
1018.67 1019.07 1019.19 1019.27 1019.35 1019.43 1019.31 1019.23 1019.19 1019.31 1019.43 1019.51 1019.63 1019.43 1019.19 1019.23 1019.39 1019.59 1019.75 1019.59 1019.47 1019.43 1019.63 1019.71 1019.67 1019.59 1019.63 1019.47 1019.27 1019.07 1018.95 1018.87 1018.83 1018.95 1019.11 1019.11 1018.95 1018.87 1018.91 1018.75 1018.51 1018.39 1018.31 1018.35 1018.35 1018.23 1017.87 1017.75 1017.83 1017.79 1017.55 1017.35 1017.23 1017.11 1017.15 1016.95 1016.71 1016.43 1016.27 1016.15 1016.23 1016.35 1016.39
1018.91 1019.23 1019.43 1019.27 1019.11 1019.11 1019.27 1019.27 1019.35 1019.55 1019.75 1019.87 1019.83 1019.55 1019.51 1019.63 1019.79 1019.99 1020.03 1019.95 1019.83 1019.91 1020.03 1019.99 1019.83 1019.71 1019.59 1019.55 1019.43 1019.27 1019.11 1018.95 1018.91 1018.79 1018.75 1018.63 1018.43 1018.39 1018.47 1018.39 1018.31 1018.27 1018.27 1018.27 1018.23 1018.23 1017.95 1017.75 1017.67 1017.79 1017.67 1017.35 1017.15 1016.99 1016.83 1016.71 1016.19 1015.71 1015.79 1016.11 1016.43 1016.39 1016.39
1018.79 1019.07 1019.35 1019.43 1019.51 1019.35 1019.55 1019.67 1019.79 1019.95 1019.95 1019.91 1019.79 1019.71 1019.79 1019.91 1020.07 1020.27 1020.23 1020.19 1020.27 1020.35 1020.23 1020.03 1019.91 1019.83 1019.79 1019.71 1019.63 1019.51 1019.31 1019.11 1018.95 1018.83 1018.59 1018.31 1018.15 1017.91 1017.91 1018.03 1018.23 1018.23 1018.23 1018.23 1018.11 1018.03 1017.87 1017.71 1017.55 1017.63 1017.63 1017.43 1017.23 1016.87 1016.51 1016.03 1016.07 1016.15 1016.51 1016.87 1016.95 1016.79 1016.75
1019.07 1019.15 1019.23 1019.43 1019.59 1019.75 1020.03 1020.11 1020.19 1020.15 1020.07 1019.99 1020.03 1019.99 1019.99 1020.11 1020.31 1020.39 1020.35 1020.47 1020.63 1020.43 1020.15 1020.07 1019.99 1019.99 1019.95 1019.91 1019.79 1019.67 1019.47 1019.27 1019.07 1018.91 1018.75 1018.47 1018.19 1018.11 1017.95 1017.71 1017.63 1017.75 1017.83 1017.83 1017.83 1017.83 1017.71 1017.51 1017.47 1017.55 1017.55 1017.35 1017.03 1016.67 1016.27 1015.83 1015.87 1015.99 1015.99 1016.15 1016.23 1016.31 1016.31
1019.55 1019.75 1019.91 1020.07 1020.23 1020.23 1020.35 1020.67 1020.67 1020.59 1020.51 1020.39 1020.35 1020.31 1020.27 1020.35 1020.55 1020.59 1020.63 1020.83 1020.67 1020.35 1020.19 1020.07 1019.99 1019.91 1019.87 1019.83 1019.79 1019.67 1019.51 1019.35 1019.19 1019.07 1018.95 1018.79 1018.51 1018.35 1018.15 1017.75 1017.59 1017.47 1017.47 1017.55 1017.59 1017.63 1017.59 1017.47 1017.43 1017.47 1017.47 1017.31 1016.99 1016.59 1016.15 1015.91 1015.83 1015.83 1015.91 1015.91 1015.99 1016.11 1016.15
1019.67 1019.83 1019.99 1020.11 1020.43 1020.59 1020.63 1020.87 1020.87 1020.83 1020.75 1020.71 1020.67 1020.63 1020.59 1020.67 1020.91 1020.91 1020.99 1020.99 1020.59 1020.39 1020.23 1020.15 1020.07 1019.99 1019.95 1019.83 1019.75 1019.63 1019.51 1019.35 1019.15 1019.03 1018.87 1018.79 1018.63 1018.47 1018.31 1018.07 1017.83 1017.63 1017.51 1017.43 1017.51 1017.55 1017.59 1017.43 1017.31 1017.35 1017.43 1017.39 1017.07 1016.55 1016.11 1015.79 1015.75 1015.79 1015.99 1015.99 1015.99 1016.11 1016.15
1019.99 1020.15 1020.35 1020.59 1020.79 1020.75 1020.87 1021.11 1021.19 1021.15 1021.15 1021.07 1020.99 1020.95 1020.95 1020.99 1021.11 1021.19 1021.27 1021.03 1020.71 1020.59 1020.43 1020.27 1020.15 1020.11 1020.07 1019.91 1019.75 1019.59 1019.43 1019.23 1019.07 1018.91 1018.67 1018.43 1018.35 1018.47 1018.35 1018.19 1017.95 1017.99 1017.67 1017.59 1017.55 1017.47 1017.55 1017.31 1017.19 1017.27 1017.23 1017.15 1017.03 1016.67 1016.27 1015.99 1015.91 1015.83 1015.63 1015.59 1015.63 1015.75 1015.91
1020.03 1020.19 1020.39 1020.63 1020.79 1020.87 1021.07 1021.15 1021.23 1021.31 1021.43 1021.35 1021.23 1021.23 1021.15 1021.15 1021.19 1021.39 1021.31 1020.99 1020.79 1020.63 1020.51 1020.39 1020.31 1020.23 1020.11 1019.95 1019.75 1019.59 1019.35 1019.23 1018.99 1018.75 1018.51 1018.27 1018.07 1018.07 1018.07 1018.15 1017.99 1017.91 1017.67 1017.59 1017.51 1017.43 1017.43 1017.31 1017.23 1017.15 1017.07 1017.03 1016.83 1016.67 1016.39 1016.03 1015.83 1015.75 1015.55 1015.43 1015.39 1015.35 1015.35
1020.23 1020.39 1020.59 1020.79 1020.79 1020.87 1021.07 1021.19 1021.31 1021.39 1021.43 1021.51 1021.35 1021.27 1021.23 1021.19 1021.11 1021.07 1020.99 1020.87 1020.71 1020.55 1020.43 1020.43 1020.39 1020.35 1020.19 1020.07 1019.83 1019.55 1019.35 1019.23 1019.07 1018.83 1018.59 1018.31 1018.03 1017.83 1017.75 1017.67 1017.67 1017.63 1017.59 1017.47 1017.47 1017.43 1017.35 1017.27 1017.19 1017.19 1017.19 1017.07 1016.87 1016.55 1016.31 1016.15 1015.99 1015.75 1015.55 1015.35 1015.31 1015.23 1015.03
1020.23 1020.39 1020.47 1020.51 1020.63 1020.71 1020.87 1021.07 1021.27 1021.35 1021.35 1021.39 1021.31 1021.19 1021.15 1021.11 1021.07 1020.91 1020.79 1020.63 1020.51 1020.47 1020.47 1020.51 1020.47 1020.43 1020.31 1020.11 1019.87 1019.63 1019.39 1019.23 1018.95 1018.75 1018.71 1018.51 1018.31 1018.15 1017.91 1017.71 1017.63 1017.71 1017.67 1017.63 1017.59 1017.67 1017.63 1017.51 1017.47 1017.43 1017.27 1017.15 1016.83 1016.63 1016.47 1016.35 1016.15 1015.95 1015.71 1015.47 1015.35 1015.23 1015.07
1020.07 1020.23 1020.35 1020.51 1020.55 1020.59 1020.87 1020.95 1021.03 1021.07 1021.11 1021.15 1021.03 1021.03 1021.03 1021.03 1020.95 1020.87 1020.75 1020.63 1020.51 1020.51 1020.55 1020.59 1020.51 1020.43 1020.39 1020.23 1019.99 1019.83 1019.55 1019.39 1019.27 1019.19 1019.07 1018.83 1018.51 1018.19 1018.03 1017.99 1017.91 1017.83 1017.67 1017.27 1017.11 1017.27 1017.47 1017.43 1017.23 1017.07 1016.87 1016.75 1016.67 1016.59 1016.51 1016.31 1016.27 1015.83 1015.35 1015.31 1015.27 1015.23 1015.15
1019.91 1020.03 1020.11 1020.15 1020.27 1020.43 1020.55 1020.63 1020.71 1020.83 1020.87 1020.95 1020.91 1020.91 1020.91 1020.91 1020.83 1020.71 1020.67 1020.59 1020.59 1020.59 1020.67 1020.63 1020.59 1020.51 1020.43 1020.27 1020.15 1019.95 1019.79 1019.67 1019.55 1019.35 1019.23 1019.07 1018.95 1018.67 1018.23 1017.71 1017.51 1017.43 1017.47 1017.31 1016.91 1016.67 1016.55 1016.91 1017.03 1016.63 1016.47 1016.39 1016.07 1016.07 1016.19 1016.11 1015.59 1015.23 1015.31 1015.27 1015.19 1015.11 1014.99
1019.71 1019.87 1020.07 1020.11 1020.27 1020.35 1020.47 1020.43 1020.51 1020.63 1020.83 1020.87 1020.87 1020.99 1021.03 1020.99 1020.91 1020.87 1020.75 1020.63 1020.55 1020.55 1020.59 1020.59 1020.55 1020.51 1020.43 1020.31 1020.23 1020.07 1019.95 1019.87 1019.75 1019.55 1019.35 1019.15 1018.99 1018.79 1018.55 1018.15 1017.67 1017.43 1017.27 1017.15 1016.99 1016.79 1016.63 1016.31 1015.99 1015.79 1015.71 1015.99 1016.07 1015.63 1015.47 1015.27 1015.19 1015.11 1014.95 1014.91 1014.83 1014.71 1014.63
1019.27 1019.55 1019.75 1019.91 1020.15 1020.27 1020.35 1020.51 1020.63 1020.79 1020.91 1020.95 1020.99 1021.07 1021.03 1021.07 1020.99 1020.91 1020.75 1020.59 1020.51 1020.43 1020.43 1020.47 1020.51 1020.51 1020.43 1020.31 1020.19 1020.03 1019.95 1019.79 1019.67 1019.59 1019.47 1019.27 1019.07 1018.87 1018.67 1018.39 1018.03 1017.43 1017.11 1016.99 1016.79 1016.63 1016.39 1016.19 1016.03 1015.91 1015.87 1015.75 1015.71 1015.75 1015.43 1015.03 1014.87 1014.79 1014.71 1014.59 1014.47 1014.43 1014.35
Wind_Speed
10 9 6 6 3 4 4 4 3 5 5 5 9 8 10 13 5 1 13 13 13 12 10 9 10 9 8 8 6 6 6 6 4 5 5 6 5 6 6 5 4 5 5 6 5 6 6 7 5 7 5 6 6 5 4 4 3 3 2 3 3 2 0
7 9 9 10 10 6 4 3 4 6 7 5 9 15 13 11 8 6 9 13 12 13 11 9 11 9 9 8 6 6 6 6 5 4 4 5 3 5 6 6 5 5 5 5 5 4 5 6 5 7 6 5 6 6 5 5 4 4 4 4 4 2 1
5 5 7 8 7 6 6 5 2 3 8 7 10 10 10 11 10 9 6 11 11 11 9 10 10 10 9 8 7 7 7 6 5 5 5 6 5 5 6 6 6 5 6 6 6 5 6 5 5 5 6 6 6 6 6 5 5 4 4 4 3 4 3
5 4 5 5 5 4 6 9 7 5 5 7 11 13 11 12 9 9 7 10 12 13 13 10 10 11 10 9 8 7 8 7 6 6 6 5 6 5 5 6 6 6 6 5 6 6 6 6 6 5 6 6 5 6 6 6 4 4 4 4 4 4 4
7 3 5 4 3 2 2 3 2 3 10 13 10 9 7 5 7 8 7 4 6 11 12 10 8 9 9 9 7 7 8 8 7 6 6 5 5 5 5 6 5 5 7 7 4 6 5 7 6 5 6 6 4 5 6 6 6 5 4 4 4 3 4
6 6 5 4 4 4 4 1 12 13 15 10 3 5 9 8 6 8 7 8 4 1 4 5 6 4 6 7 8 7 7 7 6 5 6 6 5 7 6 5 5 5 5 7 6 4 5 7 7 6 6 5 5 6 6 5 6 6 5 5 5 4 4
7 6 5 4 4 4 8 9 11 8 9 13 9 4 6 7 7 6 5 7 6 7 6 6 5 4 5 3 4 4 4 9 8 7 6 6 5 6 7 6 5 6 4 5 6 6 4 7 6 7 7 6 5 5 6 5 5 5 5 6 5 5 5
7 5 4 4 7 7 9 10 9 7 4 4 7 4 2 2 3 4 4 6 5 6 5 5 4 4 4 3 4 6 3 2 4 6 4 4 5 5 6 6 5 5 5 5 6 6 6 6 5 6 7 6 6 5 5 7 6 6 5 6 6 5 4
7 7 4 8 9 9 11 11 9 7 6 3 4 5 2 1 2 4 3 4 5 6 5 3 4 4 3 2 4 5 5 5 4 4 4 3 2 5 5 5 5 4 6 5 5 6 6 7 6 6 6 6 6 7 5 6 7 6 6 6 6 6 5
5 7 9 10 10 9 9 9 9 6 4 5 5 3 2 2 3 4 4 3 2 3 5 6 5 5 3 1 5 5 3 4 4 4 3 3 2 3 3 5 4 4 4 5 4 6 5 6 7 6 6 7 6 8 6 6 6 6 6 7 7 6 5
6 8 9 11 11 10 8 8 8 6 5 5 3 1 2 5 4 4 3 2 2 3 3 6 5 2 1 2 6 7 3 4 5 5 8 11 13 16 18 14 7 5 6 5 5 5 6 5 6 7 7 7 7 5 6 6 7 7 7 5 6 6 7
7 8 9 10 9 9 9 7 7 6 4 5 6 6 7 8 8 8 7 5 2 2 6 6 3 2 3 4 3 1 8 8 6 6 3 4 6 6 1 4 9 14 7 8 7 5 7 8 7 8 8 8 7 6 5 5 6 7 6 7 5 6 6
8 6 7 9 8 7 7 8 9 8 9 8 7 6 8 8 9 7 6 8 8 8 6 2 4 3 4 4 4 7 7 2 3 3 3 2 5 5 5 4 3 3 12 8 9 9 5 9 9 7 8 9 9 8 7 6 6 5 6 6 6 6 6
10 10 9 8 9 9 8 8 8 9 9 10 9 10 7 6 7 7 7 7 5 6 6 5 4 4 3 4 4 4 5 4 3 3 3 4 5 4 4 4 5 4 7 10 9 10 8 7 10 8 8 9 8 9 8 7 6 6 6 6 6 6 5
11 11 10 10 9 7 7 8 7 7 8 7 8 10 10 7 6 6 7 7 6 6 6 6 6 6 6 6 7 5 4 4 4 2 3 4 4 4 6 2 1 1 2 6 6 3 7 7 9 9 9 8 9 9 8 8 8 7 7 7 7 7 6
13 11 11 9 9 8 8 8 6 6 8 5 4 6 6 6 7 7 7 8 8 8 7 6 6 7 9 9 7 5 4 3 2 2 2 1 2 2 2 2 2 2 1 3 4 2 4 5 2 9 10 9 8 9 8 8 7 9 14 12 8 8 8
11 12 12 11 9 9 7 7 5 5 6 5 4 6 8 7 7 7 8 8 9 7 4 7 7 7 9 9 6 5 4 3 2 2 3 2 4 3 3 0 1 2 2 2 3 2 3 2 4 4 4 10 10 10 9 8 8 13 14 15 15 10 8
9 10 11 11 10 9 8 8 7 7 7 7 6 5 6 7 6 6 7 6 7 5 6 9 8 8 8 7 6 5 4 4 4 3 3 3 2 0 2 2 1 2 2 2 1 1 3 3 2 2 2 2 2 6 8 8 12 15 15 16 16 13 9
10 10 11 10 10 9 8 8 8 7 7 6 6 5 4 4 5 6 6 6 6 6 8 8 8 8 7 7 6 5 4 3 4 4 5 6 5 5 5 4 3 2 2 2 0 1 1 2 3 3 2 0 0 2 2 3 7 13 15 16 17 18 14
11 11 11 10 9 7 6 5 4 6 8 8 8 8 7 3 7 7 6 3 4 7 8 8 7 7 7 6 6 6 5 5 5 4 5 5 5 5 5 7 3 3 2 2 3 2 1 1 2 3 3 3 2 1 3 4 5 7 12 14 17 18 16
9 9 8 8 7 6 4 3 2 4 8 7 6 5 6 8 5 5 6 4 4 6 8 7 6 6 6 6 7 7 7 7 6 6 6 6 5 4 2 5 4 2 3 3 3 2 3 2 3 3 3 3 2 4 6 4 4 4 4 10 12 14 13
7 8 9 7 7 5 4 3 3 4 6 3 3 3 5 6 6 4 4 4 7 7 6 5 5 5 5 5 5 5 6 6 8 9 8 6 3 3 3 5 3 2 3 3 3 3 2 3 2 3 4 3 3 4 6 7 10 9 4 5 10 12 7
5 7 10 8 7 6 3 3 2 4 5 4 3 3 3 3 4 6 6 5 4 7 6 6 5 4 3 3 3 2 0 1 1 2 3 2 1 2 4 5 3 3 3 3 3 4 4 3 3 3 4 3 2 3 4 5 8 11 12 9 2 2 4
5 7 8 7 6 5 3 2 3 7 8 6 6 5 3 4 5 6 6 6 6 4 6 6 5 5 5 5 3 1 2 2 2 1 1 2 3 1 1 3 5 5 5 4 4 3 4 4 4 4 3 3 3 3 4 5 2 9 3 6 10 9 4
9 10 8 6 4 4 3 4 5 7 7 5 6 5 6 7 7 7 5 5 6 5 6 6 4 4 4 5 5 6 4 3 3 2 2 3 4 2 0 1 2 2 3 3 4 4 3 3 3 4 5 4 4 5 6 5 2 7 8 9 12 10 7
8 9 8 4 4 4 6 7 7 7 7 7 5 6 7 7 6 5 4 4 5 6 6 5 4 3 3 3 4 5 5 5 4 3 3 4 5 3 2 2 2 3 3 3 3 4 4 3 2 4 4 5 4 4 1 3 7 10 12 7 4 7 3
8 8 6 6 7 7 7 7 6 7 6 5 6 7 6 6 5 4 4 4 4 4 4 3 3 4 3 3 3 5 5 5 4 6 6 6 6 5 4 3 3 3 3 4 4 4 5 3 3 4 4 5 5 5 6 9 9 7 3 2 4 7 7
7 7 6 8 10 7 6 7 7 7 7 6 8 7 6 5 4 4 4 4 6 5 5 5 4 3 3 3 3 4 5 4 5 4 5 6 6 7 7 5 5 4 4 4 4 4 4 4 4 4 5 5 6 7 8 8 9 7 5 7 10 11 14
7 6 6 7 8 7 7 6 5 5 5 6 7 5 5 5 5 4 5 6 5 5 5 5 4 4 4 3 3 3 4 4 5 5 4 5 6 6 7 6 6 5 4 4 4 5 5 5 5 5 5 5 6 6 7 6 6 8 7 7 11 12 13
6 6 7 7 8 6 5 4 4 4 5 6 5 5 5 6 5 5 5 6 5 5 5 4 5 5 6 5 4 4 4 4 5 6 6 6 6 6 6 6 6 6 6 4 5 5 6 6 6 5 5 6 6 5 6 5 6 4 3 4 6 9 12
6 6 6 7 7 4 4 4 4 4 4 5 5 5 4 5 5 4 5 4 4 6 5 4 4 4 4 5 5 6 6 5 5 6 7 7 5 4 5 6 6 7 6 6 6 6 6 7 6 6 6 5 6 5 3 2 1 3 5 8 10 11 11
6 6 6 5 5 4 4 3 3 3 3 4 4 4 3 3 3 2 3 3 3 4 4 4 4 4 4 4 5 6 6 6 6 6 7 8 7 7 6 5 6 6 7 6 6 6 7 7 6 6 6 5 2 2 3 3 3 3 4 4 6 7 10
6 6 5 4 2 3 2 2 2 3 3 3 2 2 2 2 1 1 1 3 3 3 3 3 3 4 4 5 5 6 6 6 6 6 6 6 7 6 6 6 6 6 6 6 6 6 5 3 2 3 4 4 4 4 5 5 5 5 4 3 3 3 0
5 5 4 2 2 2 2 3 3 3 3 2 2 1 1 1 2 2 3 3 3 2 3 3 3 3 4 5 5 6 6 6 10 9 6 6 7 7 7 6 6 7 7 6 5 6 6 6 6 6 5 6 6 6 6 5 5 6 7 4 3 2 1
4 4 2 2 2 2 4 3 3 1 1 1 2 2 2 2 2 3 4 3 3 3 4 3 3 3 4 5 5 6 6 6 7 8 8 8 8 8 8 7 7 7 8 9 7 5 5 7 8 8 6 5 6 6 7 6 5 6 4 3 2 3 5
4 4 2 2 3 4 2 1 0 0 0 1 2 3 3 4 3 3 3 4 4 4 4 4 3 3 3 3 4 4 5 5 6 6 7 7 8 8 8 10 13 12 9 9 11 16 15 7 6 8 8 9 7 4 7 7 8 8 5 9 10 12 13
4 3 4 4 3 2 1 1 0 1 3 3 4 4 4 5 5 5 6 5 4 4 4 4 4 3 3 4 4 6 6 5 6 6 6 6 7 7 9 9 7 10 13 13 14 16 18 20 21 19 17 10 8 9 13 15 15 16 16 16 15 15 15
4 4 4 3 2 0 0 2 4 4 4 4 4 4 4 4 4 4 5 5 5 4 4 4 4 5 5 4 4 5 5 5 4 5 6 7 7 8 8 9 10 10 8 12 15 17 19 19 19 18 16 17 15 11 9 13 15 15 15 16 16 16 16
Wind_Direction
184 162 136 128 182 200 151 118 129 151 122 128 149 120 47 61 1 216 162 166 164 167 172 166 172 174 178 183 185 189 190 198 186 179 171 178 167 169 168 178 178 180 172 170 192 173 174 187 168 176 178 164 173 167 176 179 180 212 166 140 141 123 149
158 159 161 162 180 188 140 55 38 129 149 129 99 100 136 145 163 171 171 168 166 169 172 166 172 177 180 184 185 185 189 197 190 181 171 180 177 175 170 179 179 187 183 183 186 183 172 183 160 171 179 168 173 170 175 188 186 201 172 161 160 148 153
154 177 161 162 166 167 123 101 289 104 151 148 120 123 139 152 166 175 159 168 165 168 171 169 174 178 181 183 183 188 187 188 187 185 181 182 192 185 181 175 187 186 189 189 188 181 179 180 171 170 170 183 171 172 172 186 193 193 172 167 165 163 160
81 55 65 71 75 85 127 159 173 178 134 113 124 136 151 163 169 162 168 169 166 168 174 174 173 178 182 184 187 185 187 189 187 187 190 187 192 194 180 186 190 188 192 194 187 190 172 173 181 176 178 177 179 177 174 177 189 190 177 168 167 177 181
110 86 69 56 69 88 144 153 127 94 65 55 62 103 118 142 163 159 158 171 174 174 171 168 173 180 183 183 189 190 189 190 191 186 190 193 192 197 192 192 192 188 190 200 190 186 171 169 180 169 173 176 180 182 178 182 184 192 180 173 178 181 186
89 76 59 57 51 20 2 71 62 59 79 93 194 162 141 158 178 162 155 168 184 154 168 165 174 175 181 181 186 189 185 193 194 192 187 193 191 194 202 201 197 199 185 193 192 202 173 176 173 171 172 183 185 183 183 184 188 189 181 179 187 192 198
76 75 76 57 45 45 48 65 100 101 137 155 167 157 165 166 163 151 144 171 177 174 182 192 192 181 205 176 189 174 182 190 192 200 191 197 198 195 196 201 199 199 198 186 187 200 169 180 172 171 177 178 189 174 188 191 188 191 182 178 195 202 204
52 49 0 72 69 80 76 90 101 127 177 157 147 140 136 151 126 136 137 162 181 186 190 189 181 176 191 202 194 194 184 166 171 172 177 200 201 195 196 199 202 194 195 192 196 191 185 172 173 180 176 184 183 197 186 188 194 193 183 187 191 208 205
62 54 38 51 55 52 72 78 109 156 172 153 91 99 135 207 152 129 136 142 178 186 194 141 85 53 15 292 220 201 188 185 191 182 190 203 229 201 193 199 205 196 201 204 203 194 187 187 177 172 187 185 185 200 201 191 192 194 181 190 195 195 209
48 69 68 57 42 46 55 61 88 111 129 117 88 75 121 142 91 89 102 123 151 154 149 114 168 173 187 312 321 297 261 188 179 187 193 209 265 302 225 195 202 203 207 213 201 197 193 189 188 184 177 190 191 194 204 193 194 192 186 188 190 198 204
36 52 61 60 50 39 46 59 57 83 96 88 104 171 111 94 92 78 76 65 56 53 59 81 53 42 110 61 14 338 299 342 1 21 25 29 30 19 358 341 317 215 208 215 214 200 191 185 191 192 189 191 190 187 201 190 192 194 198 189 189 194 201
49 42 46 58 59 48 40 42 50 53 76 97 95 79 71 71 65 61 48 37 32 61 65 48 60 112 84 89 140 36 13 37 56 55 79 102 88 91 86 359 337 321 256 202 216 214 201 192 188 190 196 198 196 195 197 192 179 193 200 199 188 188 202
85 72 59 56 54 47 40 47 53 48 36 21 43 84 90 83 79 70 61 55 45 35 42 97 164 151 137 204 161 123 126 140 118 146 134 105 110 122 145 156 196 309 306 258 208 214 204 205 195 187 191 197 196 199 196 197 195 184 194 199 198 195 196
98 86 79 66 59 53 48 45 61 57 32 32 28 20 37 80 92 86 78 66 55 49 45 30 21 114 114 88 85 108 122 124 110 107 140 145 141 167 164 202 179 184 279 305 243 207 215 196 201 196 185 191 196 199 194 194 200 201 195 199 199 195 201
93 85 81 79 75 63 56 59 53 66 71 55 35 28 28 27 44 70 71 71 55 43 40 30 19 73 82 71 63 64 83 86 85 101 118 128 168 184 212 210 15 88 303 305 304 259 233 201 190 201 199 191 192 192 194 196 203 203 202 200 206 203 210
117 115 106 99 96 94 86 70 66 78 91 78 75 92 67 34 38 43 61 64 59 48 25 19 54 68 74 68 59 62 77 71 85 126 155 147 188 238 227 162 202 222 225 281 295 355 32 352 262 196 199 201 194 192 194 197 202 207 205 204 203 206 212
109 112 110 105 93 88 90 94 83 88 89 98 93 80 76 52 37 51 55 55 57 40 21 64 54 54 64 67 70 79 77 78 62 77 103 80 60 22 332 20 168 237 218 237 276 319 335 41 13 343 248 206 197 196 201 202 202 198 205 209 209 207 209
87 91 97 99 99 88 75 77 83 79 68 60 59 71 87 96 95 62 50 60 68 62 58 70 64 60 61 62 55 47 60 74 66 55 59 80 98 178 269 248 202 214 249 262 302 354 355 11 349 312 353 344 267 225 214 208 202 199 200 208 213 212 214
104 99 91 76 69 70 67 58 59 64 75 68 43 39 65 105 102 101 105 93 80 72 69 68 62 56 50 40 39 43 35 45 59 53 50 37 28 6 329 317 312 328 331 312 30 36 7 313 319 317 326 272 280 321 315 288 242 215 204 208 210 211 211
113 110 104 94 86 82 72 52 27 42 58 53 40 27 14 23 82 86 73 83 101 90 87 79 69 64 54 41 28 22 30 30 36 52 50 38 32 35 358 315 307 312 299 299 313 301 277 281 306 309 310 322 324 259 251 267 281 242 231 224 217 213 210
101 99 102 110 108 104 104 95 53 60 73 60 41 22 8 14 37 90 86 61 68 104 96 85 80 69 59 48 31 18 15 13 20 28 32 41 26 17 356 287 286 318 333 331 319 327 330 317 321 309 309 320 331 326 312 287 305 341 259 243 242 243 224
97 110 107 98 91 78 66 51 49 78 100 90 71 41 26 19 1 41 69 71 69 77 99 109 106 105 98 80 64 31 10 25 14 17 356 353 26 343 290 285 298 331 335 335 335 320 309 305 289 287 296 296 304 311 305 304 319 325 330 237 243 243 237
97 109 118 114 104 95 64 19 11 71 110 89 60 40 53 61 21 38 27 24 61 90 83 73 70 76 84 112 138 141 147 288 10 58 314 302 294 262 296 310 334 348 356 355 340 333 321 307 288 273 265 273 271 279 285 296 301 330 348 2 269 232 250
108 91 92 101 99 96 82 22 16 64 66 57 22 1 31 62 55 56 31 11 13 65 78 69 59 59 41 11 0 228 231 213 216 209 212 279 275 269 343 341 354 354 349 333 337 333 333 321 316 303 287 282 283 252 262 272 320 69 77 96 132 160 176
105 92 83 75 79 89 70 43 50 73 71 45 21 19 42 49 53 49 32 5 4 36 60 54 49 53 47 6 345 348 339 316 280 243 248 252 270 257 171 255 281 302 311 321 329 312 295 292 298 303 296 284 271 274 264 267 177 183 213 195 163 165 186
88 95 91 73 54 71 66 52 40 47 51 36 24 40 45 49 55 53 31 8 15 29 39 36 19 37 43 19 349 333 332 329 324 308 291 285 273 267 224 191 247 260 270 272 262 275 284 302 309 305 307 308 298 288 119 232 243 231 224 221 182 178 201
82 81 82 76 59 52 55 48 41 39 37 29 36 35 46 49 49 40 27 16 38 26 23 25 15 22 7 8 345 325 325 321 330 325 315 304 296 286 279 250 231 233 229 252 254 254 258 259 266 275 276 279 271 266 214 235 245 270 290 347 95 204 208
73 70 67 72 65 56 50 45 39 24 21 29 37 32 26 41 35 26 24 25 34 13 17 13 3 352 10 338 317 313 310 314 312 321 324 316 310 305 295 285 271 261 253 251 249 255 268 270 267 262 264 259 253 259 246 249 251 254 247 199 191 189 204
80 76 66 67 64 52 56 50 33 16 26 34 31 23 19 20 25 23 35 38 13 358 5 350 338 350 326 319 309 303 310 314 320 316 310 305 305 304 301 300 300 288 276 261 261 267 268 269 264 257 257 260 262 261 263 252 263 250 246 216 200 200 205
81 73 70 69 73 56 49 58 33 31 34 40 25 20 23 28 31 21 31 16 346 354 346 346 354 345 345 336 333 327 318 315 316 305 296 290 290 297 292 293 290 291 289 284 273 270 269 262 259 253 256 264 263 262 266 247 245 292 313 268 238 212 216
92 86 86 80 71 61 55 50 44 41 44 39 31 23 27 34 27 18 27 356 342 338 331 332 339 330 317 317 313 308 301 296 291 294 292 290 287 282 295 298 300 296 287 283 280 267 264 269 268 264 259 256 260 270 294 320 313 251 233 227 239 237 227
85 83 76 77 75 66 65 53 51 54 54 43 37 25 28 33 23 17 13 314 319 311 305 329 320 312 309 301 303 300 295 288 286 285 291 295 291 282 268 261 271 270 271 265 258 250 248 255 258 263 266 268 295 315 289 302 299 291 261 241 238 242 235
102 98 93 85 91 93 78 91 60 57 41 37 41 31 18 358 356 339 298 302 287 289 311 315 330 333 335 325 312 306 302 297 275 270 281 280 286 287 278 267 253 259 266 266 274 284 293 298 321 355 339 315 303 303 328 315 294 286 286 259 254 260 336
103 102 109 130 137 107 116 87 79 51 40 9 9 348 5 327 323 296 291 283 287 309 347 338 345 339 328 317 321 314 318 320 328 329 321 318 320 318 324 328 331 331 327 338 349 350 336 331 320 310 305 314 308 302 297 291 292 291 295 280 245 269 305
124 121 132 112 113 119 102 85 71 56 30 338 326 0 352 2 337 332 321 327 333 13 343 332 347 345 336 331 327 327 325 336 344 341 335 331 329 325 320 316 313 316 311 304 305 296 301 306 298 287 275 264 277 290 292 287 281 276 259 248 203 268 294
137 141 169 146 128 109 101 109 114 144 335 342 29 14 351 351 341 339 347 351 358 356 352 346 337 327 316 307 310 310 327 328 324 317 318 320 319 318 309 308 309 306 303 302 305 308 304 277 257 270 285 289 274 247 268 279 278 275 252 258 265 270 263
131 123 111 88 72 60 61 260 216 84 54 48 25 16 10 359 355 354 349 344 340 344 335 332 325 331 323 332 331 329 329 328 320 315 312 310 311 311 312 308 295 282 289 292 295 294 291 294 296 294 288 288 293 295 285 275 273 275 277 276 275 276 280
144 127 108 94 92 244 305 59 60 58 46 37 35 19 8 355 345 334 327 325 323 326 332 340 340 331 322 319 310 317 313 301 300 306 308 309 308 308 307 306 305 303 277 270 276 276 278 278 276 277 282 285 276 270 277 271 264 264 265 271 277 275 272